GFA512 OBBI-OMDB

Flight info

Callsign GFA512
Flight time N/A
Altitude 25000
Route BHR345/30R DCT BHR N697 SODAK P559 VUTEB VUTEB4D
Aircraft A21N/M-VGDW/C

Departure

Time N/A
Airport Bahrain International Airport (OBBI)

Arrival

Time 2026-04-20 16:10
Airport Dubai International Airport (OMDB)
Time Latitude Longitude Altitude Speed Heading
2026-04-20 15:30 26.33761 52.42597 24832 ft 509 kts 115°
2026-04-20 15:31 26.32369 52.46231 24825 ft 509 kts 115°
2026-04-20 15:31 26.30997 52.49810 24823 ft 509 kts 115°
2026-04-20 15:31 26.29604 52.53440 24821 ft 509 kts 115°
2026-04-20 15:31 26.28204 52.57085 24826 ft 509 kts 115°
2026-04-20 15:32 26.26809 52.60714 24820 ft 509 kts 115°
2026-04-20 15:32 26.25412 52.64346 24828 ft 509 kts 115°
2026-04-20 15:32 26.24018 52.67967 24820 ft 509 kts 115°
2026-04-20 15:32 26.22619 52.71610 24823 ft 509 kts 115°
2026-04-20 15:33 26.21246 52.75197 24819 ft 509 kts 115°
2026-04-20 15:33 26.19856 52.78832 24828 ft 509 kts 115°
2026-04-20 15:33 26.18462 52.82477 24826 ft 509 kts 115°
2026-04-20 15:33 26.17073 52.86097 24826 ft 509 kts 115°
2026-04-20 15:34 26.15698 52.89682 24826 ft 509 kts 115°
2026-04-20 15:34 26.14308 52.93302 24825 ft 509 kts 115°
2026-04-20 15:34 26.12911 52.96935 24829 ft 509 kts 115°
2026-04-20 15:34 26.11516 53.00555 24825 ft 509 kts 115°
2026-04-20 15:35 26.10129 53.04188 24831 ft 509 kts 114°
2026-04-20 15:35 26.08789 53.07824 24830 ft 509 kts 114°
2026-04-20 15:35 26.07446 53.11477 24830 ft 508 kts 114°
2026-04-20 15:35 26.06108 53.15115 24834 ft 508 kts 114°
2026-04-20 15:36 26.04765 53.18757 24831 ft 508 kts 114°
2026-04-20 15:36 26.03421 53.22400 24830 ft 508 kts 114°
2026-04-20 15:36 26.02103 53.25990 24829 ft 508 kts 114°
2026-04-20 15:36 26.00763 53.29625 24831 ft 508 kts 114°
2026-04-20 15:37 25.99419 53.33263 24834 ft 508 kts 114°
2026-04-20 15:37 25.98081 53.36882 24833 ft 508 kts 114°
2026-04-20 15:37 25.96733 53.40530 24834 ft 508 kts 114°
2026-04-20 15:37 25.95389 53.44157 24835 ft 508 kts 114°
2026-04-20 15:38 25.94038 53.47799 24834 ft 508 kts 114°
2026-04-20 15:38 25.92736 53.51455 24831 ft 508 kts 112°
2026-04-20 15:38 25.91489 53.55073 24832 ft 508 kts 112°
2026-04-20 15:38 25.90226 53.58742 24833 ft 508 kts 112°
2026-04-20 15:39 25.88959 53.62422 24834 ft 508 kts 112°
2026-04-20 15:39 25.87694 53.66087 24838 ft 509 kts 112°
2026-04-20 15:39 25.86428 53.69748 24836 ft 509 kts 112°
2026-04-20 15:39 25.85158 53.73422 24834 ft 509 kts 112°
2026-04-20 15:40 25.83887 53.77091 24835 ft 509 kts 112°
2026-04-20 15:40 25.82614 53.80756 24834 ft 508 kts 112°
2026-04-20 15:40 25.81339 53.84423 24834 ft 508 kts 112°
2026-04-20 15:40 25.80069 53.88075 24831 ft 508 kts 112°
2026-04-20 15:41 25.78796 53.91732 24835 ft 507 kts 112°
2026-04-20 15:41 25.77523 53.95384 24833 ft 507 kts 112°
2026-04-20 15:41 25.76265 53.98988 24831 ft 507 kts 112°
2026-04-20 15:41 25.75059 54.02665 24830 ft 507 kts 110°
2026-04-20 15:42 25.73919 54.06375 24830 ft 506 kts 110°
2026-04-20 15:42 25.72781 54.10077 24829 ft 506 kts 110°
2026-04-20 15:42 25.71638 54.13789 24831 ft 512 kts 110°
2026-04-20 15:42 25.70497 54.17494 24837 ft 513 kts 110°
2026-04-20 15:43 25.69346 54.21237 24837 ft 513 kts 110°
2026-04-20 15:43 25.68193 54.24980 24833 ft 513 kts 110°
2026-04-20 15:43 25.67037 54.28731 24828 ft 513 kts 110°
2026-04-20 15:43 25.65879 54.32472 24828 ft 513 kts 110°
2026-04-20 15:44 25.64723 54.36206 24827 ft 513 kts 110°
2026-04-20 15:44 25.63566 54.39940 24825 ft 512 kts 110°
2026-04-20 15:44 25.62424 54.43625 24472 ft 498 kts 110°
2026-04-20 15:44 25.61299 54.47239 23677 ft 494 kts 110°
2026-04-20 15:45 25.60182 54.50831 22818 ft 490 kts 110°
2026-04-20 15:45 25.59082 54.54386 22008 ft 484 kts 109°
2026-04-20 15:45 25.58266 54.57976 21235 ft 478 kts 99°
2026-04-20 15:45 25.58120 54.61625 20492 ft 471 kts 86°
2026-04-20 15:46 25.58503 54.65192 19778 ft 464 kts 81°
2026-04-20 15:46 25.58976 54.68706 19080 ft 458 kts 81°
2026-04-20 15:46 25.59438 54.72179 18386 ft 451 kts 81°
2026-04-20 15:46 25.59881 54.75605 17648 ft 445 kts 81°
2026-04-20 15:47 25.60304 54.78940 16885 ft 440 kts 81°
2026-04-20 15:47 25.60723 54.82283 16127 ft 434 kts 81°
2026-04-20 15:47 25.61113 54.85589 15385 ft 430 kts 83°
2026-04-20 15:47 25.60977 54.88870 14749 ft 424 kts 99°
2026-04-20 15:48 25.60032 54.91949 13991 ft 423 kts 116°
2026-04-20 15:48 25.58551 54.94751 13229 ft 420 kts 120°
2026-04-20 15:48 25.57136 54.97526 12808 ft 407 kts 117°
2026-04-20 15:48 25.55898 55.00285 12524 ft 392 kts 114°
2026-04-20 15:49 25.54779 55.02975 12298 ft 377 kts 115°
2026-04-20 15:49 25.53548 55.05483 12095 ft 363 kts 119°
2026-04-20 15:49 25.52304 55.07861 11922 ft 350 kts 119°
2026-04-20 15:49 25.51122 55.10123 11759 ft 337 kts 119°
2026-04-20 15:50 25.49969 55.12335 11612 ft 325 kts 119°
2026-04-20 15:50 25.48863 55.14459 11458 ft 313 kts 119°
2026-04-20 15:50 25.47796 55.16512 11329 ft 301 kts 119°
2026-04-20 15:50 25.46766 55.18496 11119 ft 293 kts 119°
2026-04-20 15:51 25.45655 55.20380 10725 ft 293 kts 129°
2026-04-20 15:51 25.44316 55.22076 10373 ft 291 kts 132°
2026-04-20 15:51 25.43414 55.23170 10144 ft 289 kts 132°
2026-04-20 15:51 25.41620 55.25345 9694 ft 287 kts 132°
2026-04-20 15:52 25.40288 55.26969 9329 ft 284 kts 131°
2026-04-20 15:52 25.39410 55.28044 9064 ft 284 kts 131°
2026-04-20 15:52 25.38096 55.29652 8792 ft 278 kts 131°
2026-04-20 15:53 25.35540 55.32665 8471 ft 258 kts 142°
2026-04-20 15:53 25.34041 55.33676 8336 ft 248 kts 152°
2026-04-20 15:53 25.32526 55.34543 8202 ft 242 kts 153°
2026-04-20 15:53 25.31044 55.35388 8078 ft 242 kts 152°
2026-04-20 15:54 25.29516 55.36268 7962 ft 252 kts 152°
2026-04-20 15:54 25.27913 55.37198 7847 ft 263 kts 152°
2026-04-20 15:54 25.26297 55.38139 7708 ft 263 kts 152°
2026-04-20 15:54 25.24677 55.39085 7565 ft 262 kts 152°
2026-04-20 15:55 25.23085 55.40016 7425 ft 262 kts 152°
2026-04-20 15:55 25.21476 55.40956 7286 ft 261 kts 152°
2026-04-20 15:55 25.19869 55.41896 7141 ft 261 kts 152°
2026-04-20 15:55 25.18263 55.42834 7011 ft 261 kts 152°
2026-04-20 15:56 25.16659 55.43771 6869 ft 260 kts 151°
2026-04-20 15:56 25.14992 55.44746 6748 ft 281 kts 151°
2026-04-20 15:56 25.13249 55.45765 6612 ft 282 kts 151°
2026-04-20 15:56 25.11563 55.46817 6452 ft 281 kts 143°
2026-04-20 15:57 25.10243 55.48370 6309 ft 278 kts 122°
2026-04-20 15:57 25.09244 55.50197 6162 ft 277 kts 118°
2026-04-20 15:57 25.08275 55.52035 6004 ft 276 kts 119°
2026-04-20 15:57 25.07298 55.53852 5859 ft 275 kts 120°
2026-04-20 15:58 25.06307 55.55647 5631 ft 271 kts 120°
2026-04-20 15:58 25.05326 55.57387 5270 ft 271 kts 121°
2026-04-20 15:58 25.04321 55.59169 5009 ft 269 kts 121°
2026-04-20 15:58 25.03359 55.60895 4659 ft 267 kts 120°
2026-04-20 15:59 25.02396 55.62656 4275 ft 267 kts 120°
2026-04-20 15:59 25.01435 55.64412 3891 ft 268 kts 120°
2026-04-20 15:59 25.00471 55.66166 3563 ft 266 kts 121°
2026-04-20 15:59 24.99509 55.67874 3370 ft 258 kts 121°
2026-04-20 16:00 24.98736 55.69610 3228 ft 247 kts 102°
2026-04-20 16:00 24.98731 55.71433 3083 ft 232 kts 73°
2026-04-20 16:00 24.99465 55.72904 3004 ft 214 kts 47°
2026-04-20 16:00 25.00571 55.73860 3017 ft 199 kts 21°
2026-04-20 16:01 25.01889 55.74278 3028 ft 197 kts 12°
2026-04-20 16:01 25.03239 55.74346 3011 ft 195 kts 341°
2026-04-20 16:01 25.04336 55.73520 2977 ft 189 kts 315°
2026-04-20 16:01 25.05170 55.72397 2669 ft 189 kts 306°
2026-04-20 16:02 25.05926 55.71189 2307 ft 192 kts 304°
2026-04-20 16:02 25.06687 55.69959 2054 ft 193 kts 304°
2026-04-20 16:02 25.07397 55.68722 2004 ft 192 kts 302°
2026-04-20 16:02 25.08100 55.67463 2010 ft 192 kts 302°
2026-04-20 16:03 25.08801 55.66201 2024 ft 193 kts 302°
2026-04-20 16:03 25.09498 55.64943 2102 ft 191 kts 302°
2026-04-20 16:03 25.10193 55.63688 2661 ft 194 kts 302°
2026-04-20 16:03 25.10907 55.62401 2945 ft 196 kts 302°
2026-04-20 16:04 25.11617 55.61119 3037 ft 197 kts 302°
2026-04-20 16:04 25.12377 55.59748 3060 ft 206 kts 302°
2026-04-20 16:04 25.13086 55.58467 3039 ft 193 kts 302°
2026-04-20 16:04 25.13781 55.57212 3022 ft 191 kts 302°
2026-04-20 16:05 25.14476 55.55958 3023 ft 191 kts 302°
2026-04-20 16:05 25.15145 55.54746 2991 ft 176 kts 302°
2026-04-20 16:05 25.15765 55.53628 2833 ft 169 kts 302°
2026-04-20 16:05 25.16375 55.52526 2653 ft 167 kts 302°
2026-04-20 16:06 25.16986 55.51423 2482 ft 172 kts 302°
2026-04-20 16:06 25.17576 55.50355 2267 ft 157 kts 302°
2026-04-20 16:06 25.18101 55.49407 2058 ft 136 kts 302°
2026-04-20 16:06 25.18593 55.48517 1873 ft 136 kts 302°
2026-04-20 16:07 25.19087 55.47625 1709 ft 135 kts 302°
2026-04-20 16:07 25.19575 55.46742 1538 ft 135 kts 302°
2026-04-20 16:07 25.20065 55.45856 1362 ft 134 kts 301°
2026-04-20 16:07 25.20551 55.44978 1201 ft 134 kts 302°
2026-04-20 16:08 25.21037 55.44099 1015 ft 133 kts 302°
2026-04-20 16:08 25.21522 55.43222 856 ft 134 kts 301°
2026-04-20 16:08 25.22006 55.42346 683 ft 134 kts 301°
2026-04-20 16:08 25.22492 55.41466 500 ft 134 kts 301°
2026-04-20 16:09 25.22979 55.40587 333 ft 134 kts 301°
2026-04-20 16:09 25.23454 55.39720 167 ft 134 kts 302°
2026-04-20 16:09 25.23937 55.38856 37 ft 126 kts 302°
2026-04-20 16:09 25.24352 55.38117 18 ft 97 kts 302°
2026-04-20 16:10 25.24655 55.37575 17 ft 70 kts 301°
2026-04-20 16:10 25.24893 55.37144 15 ft 61 kts 302°
2026-04-20 16:10 25.25019 55.36857 15 ft 16 kts 281°
2026-04-20 16:10 25.25020 55.36752 15 ft 15 kts 264°
2026-04-20 16:11 25.25020 55.36631 15 ft 17 kts 269°
2026-04-20 16:11 25.25026 55.36494 15 ft 19 kts 279°
2026-04-20 16:11 25.25063 55.36351 15 ft 21 kts 296°
2026-04-20 16:11 25.25145 55.36211 15 ft 22 kts 303°
2026-04-20 16:12 25.25225 55.36055 15 ft 24 kts 301°
2026-04-20 16:12 25.25318 55.35890 15 ft 26 kts 301°
2026-04-20 16:12 25.25338 55.35854 15 ft 1 kts 301°
2026-04-20 16:12 25.25346 55.35840 16 ft 4 kts 301°
2026-04-20 16:13 25.25363 55.35808 15 ft 6 kts 301°
2026-04-20 16:13 25.25392 55.35755 15 ft 9 kts 301°
2026-04-20 16:13 25.25431 55.35682 17 ft 12 kts 302°
2026-04-20 16:13 25.25482 55.35592 15 ft 15 kts 302°
2026-04-20 16:14 25.25545 55.35487 15 ft 18 kts 302°
2026-04-20 16:14 25.25612 55.35362 15 ft 20 kts 301°
2026-04-20 16:14 25.25661 55.35275 17 ft 5 kts 301°
2026-04-20 16:14 25.25682 55.35236 15 ft 7 kts 301°
2026-04-20 16:15 25.25714 55.35177 15 ft 10 kts 301°
2026-04-20 16:15 25.25756 55.35100 15 ft 13 kts 300°
2026-04-20 16:15 25.25748 55.35000 16 ft 16 kts 237°
2026-04-20 16:15 25.25769 55.34883 15 ft 18 kts 302°
2026-04-20 16:16 25.25788 55.34797 15 ft 10 kts 215°
2026-04-20 16:16 25.25751 55.34767 15 ft 7 kts 211°
2026-04-20 16:16 25.25732 55.34754 16 ft 0 kts 211°
2026-04-20 16:16 25.25730 55.34753 16 ft 0 kts 211°